Yosemite National Park, California, United States (95389)
Lat: 37.54N, Lon: 119.84W
Wx Zone: CAZ093
Local Info
Past Weather Observations for Thursday, August 27, 2015

NOTE: This archive is for the closest National Weather Service station to Yosemite National Park. Information may differ from the station used for current weather conditions.

Click here for Long-term Archive

Time Weather Temperature Dewpoint Humidity Pressure Winds Precip Visibility
23:53
Clear
77°F / 25°C 52°F / 11°C 42% 29.92 in
(1013 mb)
NNW 8.1 mph
(NNW 13 kph)
- 10SM
22:53
Clear
79°F / 26°C 52°F / 11°C 39% 29.92 in
(1013 mb)
N 11.5 mph
(N 19 kph)
- 10SM
21:53
Clear
81°F / 27°C 50°F / 10°C 34% 29.92 in
(1013 mb)
N 9.2 mph
(N 15 kph)
- 10SM
20:53
Clear
84°F / 29°C 46°F / 8°C 27% 29.92 in
(1013 mb)
NNW 15 mph
(NNW 24 kph)
- 10SM
19:53
Clear
88°F / 31°C 50°F / 10°C 27% 29.89 in
(1012 mb)
NNW 15 mph
(NNW 24 kph)
- 10SM
18:53
Clear
91°F / 33°C 48°F / 9°C 23% 29.89 in
(1012 mb)
NW 9.2 mph
(NW 15 kph)
- 10SM
17:53
Clear
97°F / 36°C 48°F / 9°C 19% 29.89 in
(1012 mb)
NNW 15 mph
(NNW 24 kph)
- 10SM
16:53
Clear
99°F / 37°C 46°F / 8°C 17% 29.89 in
(1012 mb)
NNW 15 mph
(NNW 24 kph)
- 10SM
15:53
Clear
100°F / 38°C 46°F / 8°C 16% 29.89 in
(1012 mb)
NW 13.8 mph
(NW 22 kph)
- 10SM
14:53
Clear
100°F / 38°C 45°F / 7°C 15% 29.92 in
(1013 mb)
NW 12.7 mph
(NW 20 kph)
- 10SM
13:53
Clear
99°F / 37°C 45°F / 7°C 16% 29.95 in
(1014 mb)
NW 9.2 mph
(NW 15 kph)
- 10SM
12:53
Clear
99°F / 37°C 45°F / 7°C 16% 29.98 in
(1015 mb)
NW 9.2 mph
(NW 15 kph)
- 10SM
11:53
Clear
95°F / 35°C 46°F / 8°C 19% 30.01 in
(1016 mb)
WNW 8.1 mph
(WNW 13 kph)
- 10SM
10:53
Clear
91°F / 33°C 45°F / 7°C 20% 30.01 in
(1016 mb)
NW 8.1 mph
(NW 13 kph)
- 10SM
09:53
Clear
90°F / 32°C 43°F / 6°C 20% 30.04 in
(1017 mb)
NW 9.2 mph
(NW 15 kph)
- 10SM
08:53
Clear
84°F / 29°C 43°F / 6°C 23% 30.01 in
(1016 mb)
NW 8.1 mph
(NW 13 kph)
- 10SM
07:53
Clear
79°F / 26°C 45°F / 7°C 30% 30.04 in
(1017 mb)
NW 6.9 mph
(NW 11 kph)
- 7SM
06:53
Clear
Hazy
70°F / 21°C 45°F / 7°C 40% 30.01 in
(1016 mb)
W 4.6 mph
(W 7 kph)
- 5SM
05:53
Clear
66°F / 19°C 43°F / 6°C 43% 30.01 in
(1016 mb)
SSW 3.5 mph
(SSW 6 kph)
- 7SM
04:53
Clear
72°F / 22°C 39°F / 4°C 31% 29.98 in
(1015 mb)
NW 5.8 mph
(NW 9 kph)
- 9SM
03:53
Clear
73°F / 23°C 39°F / 4°C 29% 29.98 in
(1015 mb)
NW 8.1 mph
(NW 13 kph)
- 10SM
02:53
Clear
73°F / 23°C 39°F / 4°C 29% 29.98 in
(1015 mb)
NW 10.4 mph
(NW 17 kph)
- 9SM
01:53
Clear
73°F / 23°C 39°F / 4°C 29% 29.98 in
(1015 mb)
Calm - 9SM
00:53
Clear
75°F / 24°C 39°F / 4°C 27% 29.98 in
(1015 mb)
Calm - 10SM
Time Weather Temperature Dewpoint Humidity Pressure Winds Precip Visibility


Weather for websites

WeatherForYou.com, LLC is not responsible for any damages or problems caused by this service. Current weather conditions are obtained from the closest station including government and personal stations which may have varying degrees of accuracy. Weather forecasts are derived from the NOAA NDFD. Like all things, this site belongs to Jesus Christ... He just trusts us to maintain it. If you have any questions or comments email webmaster@weatherforyou.com

Copyright © 2015, WeatherForYou.com LLC. All rights reserved.